Tracking 25195 objects as of 20-Jan-2022
HD Live streaming from Space Station
objects crossing your sky now

STARLINK-1532

Track STARLINK-1532 now!
10-day predictions
STARLINK-1532 is classified as:


NORAD ID: 46068
Int'l Code: 2020-055AT
Perigee: 553.4 km
Apogee: 555.3 km
Inclination: 53.1 °
Period: 95.6 minutes
Semi major axis: 6925 km
RCS: Unknown
Launch date: August 7, 2020
Source: United States (US)
Launch site: AIR FORCE EASTERN TEST RANGE (AFETR)
aabbcc
Your satellite tracking list
Your tracking list is empty




NASA's NSSDC Master Catalog

Two Line Element Set (TLE):
1 46068U 20055AT  22019.73135085  .00002498  00000-0  18658-3 0  9996
2 46068  53.0557  35.0777 0001378  66.9775 293.1360 15.06389394 81189
Source of the keplerian elements: AFSPC